FW7813 Weather Reports


Display with metric or nautical units.
time (UTC)temp
F
wind
direction
speed
MPH
gust
MPH
rain 1hr
in
rain 24hr
in
rain mn
in
humidity
%
barometer
mb
20260510130532 58 11 3.0 11.0 0.00 0.00 0.00 80 1017.7
20260510130042 59 17 2.0 11.0 0.00 0.00 0.00 79 1017.6
20260510125531 59 327 2.0 11.0 0.00 0.00 0.00 79 1017.5
20260510125034 60 55 2.0 11.0 0.00 0.00 0.00 79 1017.0
20260510124537 60 272 1.0 9.0 0.00 0.00 0.00 80 1017.0
20260510124032 60 78 2.0 9.0 0.00 0.00 0.00 80 1016.5
20260510123533 60 87 2.0 7.0 0.00 0.00 0.00 80 1016.4
20260510123046 60 53 1.0 7.0 0.00 0.00 0.00 80 1016.4
20260510122531 60 335 2.0 6.0 0.00 0.00 0.00 79 1016.2
20260510122030 60 340 1.0 6.0 0.00 0.00 0.00 79 1016.2
20260510121545 60 98 1.0 8.0 0.00 0.00 0.00 79 1015.9
20260510121032 60 0 2.0 8.0 0.00 0.00 0.00 79 1015.9
20260510120532 60 95 3.0 9.0 0.00 0.00 0.00 78 1015.8
20260510120044 61 46 2.0 9.0 0.00 0.00 0.00 78 1015.7
20260510115531 61 75 3.0 9.0 0.00 0.00 0.00 78 1015.5
20260510115031 61 51 2.0 8.0 0.00 0.00 0.00 78 1015.5
20260510114542 61 74 1.0 12.0 0.00 0.00 0.00 77 1015.6
20260510114031 61 77 2.0 12.0 0.00 0.00 0.00 77 1015.4
20260510113531 61 360 5.0 12.0 0.00 0.00 0.00 77 1015.2
20260510113043 61 58 3.0 12.0 0.00 0.00 0.00 76 1015.1
20260510112528 61 65 4.0 15.0 0.00 0.00 0.00 76 1014.9
20260510112030 62 99 4.0 15.0 0.00 0.00 0.00 75 1014.8
20260510111538 62 90 4.0 12.0 0.00 0.00 0.00 75 1014.7
20260510111031 62 82 3.0 10.0 0.00 0.00 0.00 75 1014.7
20260510110528 62 17 3.0 9.0 0.00 0.00 0.00 76 1015.0
20260510110044 62 51 3.0 11.0 0.00 0.00 0.00 77 1014.9
20260510105533 62 69 4.0 11.0 0.00 0.00 0.00 77 1015.0
20260510105035 61 71 3.0 11.0 0.00 0.00 0.00 78 1015.0
20260510104545 61 60 3.0 11.0 0.00 0.00 0.00 79 1015.0
20260510104031 61 18 4.0 11.0 0.00 0.00 0.00 79 1014.9
20260510103531 61 86 3.0 10.0 0.00 0.00 0.00 79 1014.5
20260510103048 61 290 1.0 10.0 0.00 0.00 0.00 80 1014.7
20260510102531 61 0 1.0 10.0 0.00 0.00 0.00 80 1014.3
20260510102032 61 65 2.0 10.0 0.00 0.00 0.00 80 1014.0
20260510101544 61 82 3.0 10.0 0.00 0.00 0.00 80 1014.0
20260510101028 61 92 2.0 8.0 0.00 0.00 0.00 79 1013.9
20260510100531 61 59 3.0 8.0 0.00 0.00 0.00 79 1014.0
20260510100106 61 42 3.0 8.0 0.00 0.00 0.00 79 1014.2
20260510095531 61 57 2.0 8.0 0.00 0.00 0.00 79 1014.0
20260510095028 61 22 2.0 8.0 0.00 0.00 0.00 79 1014.1
20260510094549 61 60 1.0 6.0 0.00 0.00 0.00 79 1014.3
20260510094033 61 94 1.0 7.0 0.00 0.00 0.00 79 1014.1
20260510093528 61 80 2.0 12.0 0.00 0.00 0.00 78 1013.6
20260510093049 61 59 2.0 12.0 0.00 0.00 0.00 78 1013.3
20260510092532 62 106 3.0 12.0 0.00 0.00 0.00 78 1013.0
20260510092032 62 90 3.0 10.0 0.00 0.00 0.00 77 1013.0
20260510091544 62 88 3.0 10.0 0.00 0.00 0.00 77 1013.0
20260510091033 62 0 2.0 10.0 0.00 0.00 0.00 77 1012.8
20260510090533 62 88 3.0 10.0 0.00 0.00 0.00 77 1012.8
20260510090052 62 67 2.0 8.0 0.00 0.00 0.00 76 1012.9
20260510085528 62 74 1.0 8.0 0.00 0.00 0.00 75 1012.8
20260510085031 63 0 1.0 8.0 0.00 0.00 0.00 75 1012.9
20260510084541 63 0 1.0 13.0 0.00 0.00 0.00 74 1012.9
20260510084031 63 47 2.0 13.0 0.00 0.00 0.00 74 1012.8
20260510083531 63 83 5.0 13.0 0.00 0.00 0.00 74 1012.8
20260510083045 63 32 4.0 10.0 0.00 0.00 0.00 73 1012.7
20260510082528 64 54 2.0 9.0 0.00 0.00 0.00 73 1012.9
20260510082031 64 100 2.0 12.0 0.00 0.00 0.00 72 1012.9
20260510081544 64 77 1.0 12.0 0.00 0.00 0.00 72 1012.7
20260510081028 64 0 3.0 10.0 0.00 0.00 0.00 71 1012.4
20260510080528 65 5 3.0 11.0 0.00 0.00 0.00 71 1012.4
20260510080045 65 86 4.0 13.0 0.00 0.00 0.00 71 1012.3
20260510075529 65 71 5.0 15.0 0.00 0.00 0.00 71 1012.2
20260510075029 66 80 6.0 15.0 0.00 0.00 0.00 70 1012.1
20260510074544 66 77 4.0 12.0 0.00 0.00 0.00 70 1011.9
20260510074030 66 90 6.0 12.0 0.00 0.00 0.00 70 1011.8
20260510073529 66 53 3.0 12.0 0.00 0.00 0.00 69 1011.6
20260510073044 67 78 5.0 12.0 0.00 0.00 0.00 70 1011.6
20260510072530 67 58 4.0 12.0 0.00 0.00 0.00 70 1011.5
20260510072034 67 88 2.0 6.0 0.00 0.00 0.00 70 1011.6
20260510071552 67 80 1.0 8.0 0.00 0.00 0.00 69 1011.8
20260510071030 67 40 2.0 10.0 0.00 0.00 0.00 69 1011.6
20260510070531 68 88 4.0 12.0 0.00 0.00 0.00 69 1011.7
20260510070041 68 101 4.0 13.0 0.00 0.00 0.00 69 1011.6
20260510065530 68 67 4.0 13.0 0.00 0.00 0.00 69 1011.4
20260510065027 68 98 4.0 12.0 0.00 0.00 0.00 69 1011.6
20260510064546 68 54 3.0 12.0 0.00 0.00 0.00 68 1011.5
20260510064030 68 44 4.0 12.0 0.00 0.00 0.00 68 1011.7
20260510063530 69 38 3.0 10.0 0.00 0.00 0.00 68 1011.4
20260510063046 69 36 4.0 16.0 0.00 0.00 0.00 68 1011.5
20260510062529 69 59 4.0 16.0 0.00 0.00 0.00 68 1011.6
20260510062029 69 119 5.0 16.0 0.00 0.00 0.00 67 1011.4
20260510061549 69 61 5.0 12.0 0.00 0.00 0.00 67 1011.3
20260510061028 70 77 5.0 17.0 0.00 0.00 0.00 67 1011.3
20260510060533 70 63 5.0 17.0 0.00 0.00 0.00 66 1011.5
20260510060044 70 103 5.0 11.0 0.00 0.00 0.00 66 1011.9
20260510055530 70 49 4.0 10.0 0.00 0.00 0.00 65 1012.1
20260510055031 71 105 3.0 10.0 0.00 0.00 0.00 63 1012.1
20260510054545 71 25 3.0 10.0 0.00 0.00 0.00 63 1011.9
20260510054031 71 85 3.0 10.0 0.00 0.00 0.00 63 1011.5
20260510053530 72 80 4.0 10.0 0.00 0.00 0.00 62 1011.4
20260510053049 72 360 4.0 9.0 0.00 0.00 0.00 62 1011.3
20260510052533 72 65 3.0 7.0 0.00 0.00 0.00 61 1011.4
20260510052030 72 76 1.0 7.0 0.00 0.00 0.00 61 1011.4
20260510051546 72 87 2.0 7.0 0.00 0.00 0.00 60 1011.3
20260510051030 72 90 2.0 6.0 0.00 0.00 0.00 60 1011.3
20260510050530 72 78 2.0 6.0 0.00 0.00 0.00 59 1011.3
20260510050044 73 76 1.0 6.0 0.00 0.00 0.00 58 1011.4
20260510045532 73 0 0.0 6.0 0.00 0.00 0.00 57 1011.3
20260510045031 73 0 1.0 4.0 0.00 0.00 0.00 57 1011.1
20260510044546 73 0 0.0 3.0 0.00 0.00 0.00 55 1011.2
20260510044031 73 178 0.0 6.0 0.00 0.00 0.00 57 1011.3
20260510043530 73 0 1.0 9.0 0.00 0.00 0.00 57 1010.7
20260510043047 73 169 3.0 9.0 0.00 0.00 0.00 57 1010.6
20260510042530 73 86 3.0 7.0 0.00 0.00 0.00 56 1010.5
20260510042032 73 106 1.0 6.0 0.00 0.00 0.00 55 1010.8
20260510041542 73 84 1.0 6.0 0.00 0.00 0.00 54 1010.8
20260510041029 73 0 0.0 3.0 0.00 0.00 0.00 52 1010.6
20260510040529 73 69 0.0 3.0 0.00 0.00 0.00 50 1010.6
20260510040039 73 69 1.0 3.0 0.00 0.00 0.00 49 1010.4
20260510035529 73 54 0.0 3.0 0.00 0.00 0.00 42 1010.4
20260510035032 73 45 0.0 2.0 0.00 0.00 0.00 39 1010.2
20260510034546 73 0 0.0 3.0 0.00 0.00 0.00 34 1010.3
20260510034030 73 0 0.0 3.0 0.00 0.00 0.00 28 1010.2
20260510033529 73 318 0.0 3.0 0.00 0.00 0.00 27 1010.4
20260510033059 73 0 0.0 4.0 0.00 0.00 0.00 26 1010.4
20260510032529 73 0 0.0 4.0 0.00 0.00 0.00 27 1010.5
20260510032029 73 0 0.0 6.0 0.00 0.00 0.00 25 1010.6
20260510031549 72 0 1.0 6.0 0.00 0.00 0.00 24 1010.3
20260510031030 71 99 2.0 5.0 0.00 0.00 0.00 22 1010.0
20260510030529 70 110 0.0 1.0 0.00 0.00 0.00 23 1009.5
20260510030042 70 0 0.0 1.0 0.00 0.00 0.00 23 1009.3
20260510025529 70 0 0.0 0.0 0.00 0.00 0.00 24 1009.1
20260510025029 70 0 0.0 2.0 0.00 0.00 0.00 24 1008.9
20260510024545 70 0 0.0 2.0 0.00 0.00 0.00 22 1008.8
20260510024029 71 0 0.0 0.0 0.00 0.00 0.00 21 1008.5
20260510023530 71 0 0.0 0.0 0.00 0.00 0.00 21 1008.5
20260510023045 72 0 0.0 0.0 0.00 0.00 0.00 20 1008.2
20260510022531 73 0 0.0 0.0 0.00 0.00 0.00 20 1008.1
20260510022029 74 0 0.0 0.0 0.00 0.00 0.00 19 1008.1
20260510021544 75 0 0.0 0.0 0.00 0.00 0.00 18 1008.1
20260510021028 76 0 0.0 0.0 0.00 0.00 0.00 17 1007.9
20260510020530 76 0 0.0 1.0 0.00 0.00 0.00 18 1007.9
20260510020046 77 0 0.0 2.0 0.00 0.00 0.00 17 1007.7
20260510015531 78 97 0.0 2.0 0.00 0.00 0.00 16 1007.7
20260510015029 79 0 0.0 2.0 0.00 0.00 0.00 17 1007.6
20260510014544 80 0 0.0 2.0 0.00 0.00 0.00 16 1007.5
20260510014029 81 0 0.0 2.0 0.00 0.00 0.00 15 1007.5
20260510013530 82 97 0.0 2.0 0.00 0.00 0.00 15 1007.5
20260510013042 84 0 0.0 2.0 0.00 0.00 0.00 14 1007.3
20260510012529 85 0 0.0 3.0 0.00 0.00 0.00 13 1007.2
20260510012030 85 0 0.0 3.0 0.00 0.00 0.00 13 1007.1
20260510011551 86 97 0.0 4.0 0.00 0.00 0.00 13 1007.2
20260510011028 87 97 0.0 4.0 0.00 0.00 0.00 12 1007.0
20260510010529 87 0 0.0 6.0 0.00 0.00 0.00 12 1007.1
20260510010045 87 57 0.0 6.0 0.00 0.00 0.00 12 1007.1
20260510005529 87 83 2.0 6.0 0.00 0.00 0.00 12 1007.0
20260510005029 88 89 2.0 6.0 0.00 0.00 0.00 12 1006.9
20260510004550 88 64 1.0 4.0 0.00 0.00 0.00 12 1007.0
20260510004029 88 0 1.0 4.0 0.00 0.00 0.00 12 1007.0
20260510003529 88 13 1.0 4.0 0.00 0.00 0.00 12 1007.0
20260510003102 88 312 0.0 4.0 0.00 0.00 0.00 12 1007.1
20260510002529 89 0 0.0 8.0 0.00 0.00 0.00 11 1006.9
20260510002030 89 314 0.0 8.0 0.00 0.00 0.00 12 1007.1
20260510001543 89 0 2.0 8.0 0.00 0.00 0.00 11 1007.1
20260510001029 89 0 0.0 4.0 0.00 0.00 0.00 11 1007.0
20260510000529 90 0 0.0 5.0 0.00 0.00 0.00 10 1007.2
20260510000045 90 311 1.0 8.0 0.00 0.00 0.00 11 1007.2
20260509235529 90 300 3.0 8.0 0.00 0.00 0.00 10 1007.3
20260509235029 91 314 1.0 5.0 0.00 0.00 0.00 11 1007.4
20260509234557 91 0 1.0 5.0 0.00 0.00 0.00 10 1007.4
20260509234029 92 303 1.0 5.0 0.00 0.00 0.00 10 1007.4
20260509233529 92 184 1.0 4.0 0.00 0.00 0.00 11 1007.4
20260509233041 91 234 1.0 6.0 0.00 0.00 0.00 11 1007.4
20260509232529 91 341 1.0 7.0 0.00 0.00 0.00 11 1007.5
20260509232029 91 206 2.0 7.0 0.00 0.00 0.00 10 1007.6
20260509231552 92 303 1.0 7.0 0.00 0.00 0.00 10 1007.4
20260509231032 93 275 1.0 8.0 0.00 0.00 0.00 11 1007.3
20260509230530 93 315 2.0 8.0 0.00 0.00 0.00 9 1007.4
20260509230053 93 305 3.0 8.0 0.00 0.00 0.00 10 1007.5
20260509225530 93 263 3.0 8.0 0.00 0.00 0.00 9 1007.5
20260509225028 93 309 2.0 9.0 0.00 0.00 0.00 10 1007.5
20260509224543 93 313 2.0 9.0 0.00 0.00 0.00 10 1007.5
20260509224029 94 304 2.0 10.0 0.00 0.00 0.00 10 1007.6
20260509223532 93 311 2.0 10.0 0.00 0.00 0.00 10 1007.7
20260509223044 93 298 3.0 10.0 0.00 0.00 0.00 10 1007.7
20260509222529 93 24 3.0 10.0 0.00 0.00 0.00 11 1007.5
20260509222029 93 36 3.0 10.0 0.00 0.00 0.00 11 1007.6
20260509221542 93 300 3.0 10.0 0.00 0.00 0.00 11 1007.6
20260509221029 93 210 2.0 10.0 0.00 0.00 0.00 13 1007.6
20260509220528 93 312 3.0 11.0 0.00 0.00 0.00 12 1007.7
20260509220040 93 254 2.0 11.0 0.00 0.00 0.00 12 1007.7
20260509215530 93 307 3.0 9.0 0.00 0.00 0.00 12 1007.7
20260509215028 93 259 2.0 10.0 0.00 0.00 0.00 13 1007.7
20260509214549 94 288 4.0 10.0 0.00 0.00 0.00 11 1007.7
20260509214029 94 271 3.0 9.0 0.00 0.00 0.00 12 1007.8
20260509213530 94 320 2.0 11.0 0.00 0.00 0.00 13 1007.8
20260509213045 94 286 3.0 11.0 0.00 0.00 0.00 14 1007.9
20260509212531 93 315 3.0 10.0 0.00 0.00 0.00 13 1007.9
20260509212030 93 0 3.0 10.0 0.00 0.00 0.00 14 1007.9
20260509211544 93 0 3.0 12.0 0.00 0.00 0.00 13 1007.9
20260509211029 93 238 3.0 12.0 0.00 0.00 0.00 14 1008.0
20260509210530 93 5 3.0 11.0 0.00 0.00 0.00 14 1008.0
20260509210048 92 300 3.0 11.0 0.00 0.00 0.00 15 1008.1
20260509205530 93 343 4.0 11.0 0.00 0.00 0.00 15 1008.1
20260509205028 93 5 3.0 11.0 0.00 0.00 0.00 16 1008.2
20260509204542 93 302 2.0 11.0 0.00 0.00 0.00 16 1008.4
20260509204029 93 288 3.0 11.0 0.00 0.00 0.00 17 1008.4
20260509203532 93 355 3.0 11.0 0.00 0.00 0.00 16 1008.6
20260509203041 92 277 2.0 10.0 0.00 0.00 0.00 17 1008.6
20260509202532 93 225 2.0 10.0 0.00 0.00 0.00 16 1008.8
20260509202029 93 304 2.0 11.0 0.00 0.00 0.00 17 1008.7
20260509201546 93 297 2.0 11.0 0.00 0.00 0.00 17 1008.8
20260509201029 93 325 3.0 9.0 0.00 0.00 0.00 17 1009.0
20260509200531 92 336 2.0 9.0 0.00 0.00 0.00 17 1008.9
20260509200053 92 262 2.0 9.0 0.00 0.00 0.00 18 1009.0
20260509195531 92 201 2.0 11.0 0.00 0.00 0.00 18 1009.1
20260509195029 92 232 2.0 12.0 0.00 0.00 0.00 19 1009.1
20260509194542 92 315 2.0 12.0 0.00 0.00 0.00 19 1009.1
20260509194033 92 217 3.0 12.0 0.00 0.00 0.00 17 1009.3
20260509193532 92 195 2.0 8.0 0.00 0.00 0.00 19 1009.3
20260509193044 92 303 1.0 10.0 0.00 0.00 0.00 19 1009.3
20260509192532 91 228 1.0 11.0 0.00 0.00 0.00 19 1009.5
20260509192032 91 236 4.0 11.0 0.00 0.00 0.00 20 1009.4
20260509191542 91 215 2.0 10.0 0.00 0.00 0.00 20 1009.5
20260509191032 91 355 3.0 10.0 0.00 0.00 0.00 20 1009.8
20260509190530 91 171 2.0 8.0 0.00 0.00 0.00 20 1009.9
20260509190045 91 5 1.0 9.0 0.00 0.00 0.00 21 1010.0
20260509185531 90 96 1.0 9.0 0.00 0.00 0.00 21 1010.0
20260509185032 90 163 2.0 11.0 0.00 0.00 0.00 21 1010.0
20260509184543 89 212 2.0 11.0 0.00 0.00 0.00 22 1010.1
20260509184035 89 237 5.0 11.0 0.00 0.00 0.00 20 1010.3
20260509183529 89 258 4.0 10.0 0.00 0.00 0.00 21 1010.3
20260509183121 90 192 4.0 9.0 0.00 0.00 0.00 21 1010.4
20260509182531 90 232 2.0 11.0 0.00 0.00 0.00 21 1010.5
20260509182029 90 231 3.0 13.0 0.00 0.00 0.00 22 1010.6
20260509181557 90 96 4.0 13.0 0.00 0.00 0.00 21 1010.7
20260509181032 90 12 1.0 11.0 0.00 0.00 0.00 23 1010.9
20260509180529 89 308 3.0 14.0 0.00 0.00 0.00 22 1011.1
20260509180040 89 102 1.0 14.0 0.00 0.00 0.00 24 1011.0
20260509175529 88 168 3.0 9.0 0.00 0.00 0.00 24 1011.3
20260509175029 88 65 3.0 9.0 0.00 0.00 0.00 25 1011.3
20260509174537 88 240 3.0 9.0 0.00 0.00 0.00 25 1011.4
20260509174028 87 248 2.0 9.0 0.00 0.00 0.00 25 1011.4
20260509173529 87 71 3.0 12.0 0.00 0.00 0.00 26 1011.6
20260509173044 87 242 3.0 12.0 0.00 0.00 0.00 26 1011.6
20260509172533 87 257 2.0 12.0 0.00 0.00 0.00 26 1011.7
20260509172033 87 196 3.0 12.0 0.00 0.00 0.00 27 1011.8
20260509171545 86 159 4.0 11.0 0.00 0.00 0.00 29 1011.9
20260509171032 86 57 2.0 9.0 0.00 0.00 0.00 29 1012.0
20260509170532 86 140 2.0 10.0 0.00 0.00 0.00 29 1011.9
20260509170043 86 180 4.0 10.0 0.00 0.00 0.00 29 1012.0
20260509165531 85 188 2.0 12.0 0.00 0.00 0.00 29 1012.1
20260509165032 84 156 5.0 12.0 0.00 0.00 0.00 30 1012.2
20260509164558 85 96 4.0 12.0 0.00 0.00 0.00 29 1012.2
20260509164032 84 175 4.0 12.0 0.00 0.00 0.00 30 1012.2
20260509163531 84 145 4.0 13.0 0.00 0.00 0.00 31 1012.4
20260509163051 83 155 3.0 13.0 0.00 0.00 0.00 32 1012.6
20260509162529 83 131 4.0 13.0 0.00 0.00 0.00 32 1012.6
20260509162028 83 113 4.0 12.0 0.00 0.00 0.00 33 1012.7
20260509161546 82 110 5.0 13.0 0.00 0.00 0.00 34 1012.6
20260509161028 82 127 2.0 13.0 0.00 0.00 0.00 35 1012.6
20260509160529 82 111 4.0 11.0 0.00 0.00 0.00 35 1012.7
20260509160045 82 156 3.0 10.0 0.00 0.00 0.00 35 1012.8
20260509155528 81 112 4.0 10.0 0.00 0.00 0.00 37 1012.8
20260509155032 81 179 4.0 10.0 0.00 0.00 0.00 38 1012.8
20260509154549 81 199 3.0 11.0 0.00 0.00 0.00 36 1012.8
20260509154033 80 224 3.0 11.0 0.00 0.00 0.00 38 1012.9
20260509153532 80 109 3.0 10.0 0.00 0.00 0.00 38 1012.8
20260509153042 79 141 4.0 10.0 0.00 0.00 0.00 41 1012.9
20260509152532 79 98 2.0 11.0 0.00 0.00 0.00 41 1013.0
20260509152032 78 118 3.0 11.0 0.00 0.00 0.00 43 1013.1
20260509151543 78 139 3.0 10.0 0.00 0.00 0.00 44 1013.0
20260509151033 77 182 2.0 10.0 0.00 0.00 0.00 45 1013.2
20260509150532 77 123 6.0 14.0 0.00 0.00 0.00 45 1013.2
20260509150047 77 84 3.0 14.0 0.00 0.00 0.00 45 1013.3
20260509145529 76 100 5.0 14.0 0.00 0.00 0.00 44 1013.3
20260509145032 76 90 2.0 11.0 0.00 0.00 0.00 45 1013.3
20260509144544 76 109 3.0 11.0 0.00 0.00 0.00 44 1013.4
20260509144029 75 188 2.0 7.0 0.00 0.00 0.00 46 1013.3
20260509143529 74 119 2.0 8.0 0.00 0.00 0.00 49 1013.4
20260509143043 72 85 2.0 8.0 0.00 0.00 0.00 51 1013.5
20260509142528 72 147 2.0 8.0 0.00 0.00 0.00 51 1013.6
20260509142032 70 78 1.0 5.0 0.00 0.00 0.00 53 1013.6
20260509141542 68 0 0.0 3.0 0.00 0.00 0.00 54 1013.6
20260509141032 68 109 0.0 3.0 0.00 0.00 0.00 50 1013.6
20260509140528 67 109 0.0 2.0 0.00 0.00 0.00 51 1013.5
20260509140046 65 109 0.0 1.0 0.00 0.00 0.00 53 1013.7
20260509135532 64 0 0.0 3.0 0.00 0.00 0.00 53 1013.7
20260509135031 63 0 0.0 3.0 0.00 0.00 0.00 53 1013.6
20260509134541 62 0 0.0 1.0 0.00 0.00 0.00 53 1013.7
20260509134029 60 121 0.0 1.0 0.00 0.00 0.00 54 1013.7
20260509133529 59 0 0.0 0.0 0.00 0.00 0.00 53 1013.7
20260509133047 59 0 0.0 0.0 0.00 0.00 0.00 54 1013.6
20260509132529 58 0 0.0 0.0 0.00 0.00 0.00 56 1013.7
20260509132029 57 0 0.0 1.0 0.00 0.00 0.00 57 1013.6
20260509131544 55 0 0.0 2.0 0.00 0.00 0.00 59 1013.6
20260509131031 55 0 0.0 2.0 0.00 0.00 0.00 60 1013.7